TimeAKDT,TemperatureF,Dew PointF,Humidity,Sea Level PressureIn,VisibilityMPH,Wind Direction,Wind SpeedMPH,Gust SpeedMPH,PrecipitationIn,Events,Conditions,WindDirDegrees,DateUTC
12:03 AM,26.6,23.0,86,29.50,5.0,Calm,Calm,-,0.00,Snow,Light Snow,0,2013-04-07 08:03:00
12:53 AM,26.1,21.0,81,29.52,8.0,South,4.6,-,0.00,,Overcast,170,2013-04-07 08:53:00
1:53 AM,26.1,18.0,71,29.54,8.0,SSW,6.9,-,0.00,,Overcast,200,2013-04-07 09:53:00
2:53 AM,26.1,17.1,69,29.55,10.0,SSW,9.2,-,N/A,,Overcast,210,2013-04-07 10:53:00
3:53 AM,25.0,10.9,55,29.56,9.0,SSW,13.8,24.2,0.00,Snow,Light Snow,200,2013-04-07 11:53:00
4:53 AM,24.1,10.0,55,29.56,10.0,SSW,9.2,20.7,0.00,,Overcast,200,2013-04-07 12:53:00
5:53 AM,23.0,10.9,60,29.58,10.0,SSW,8.1,-,N/A,,Overcast,200,2013-04-07 13:53:00
6:53 AM,21.9,10.0,60,29.59,10.0,SSW,9.2,-,N/A,,Overcast,200,2013-04-07 14:53:00
7:53 AM,21.9,9.0,58,29.60,10.0,SSW,9.2,-,N/A,,Mostly Cloudy,200,2013-04-07 15:53:00
8:53 AM,21.0,9.0,60,29.62,10.0,SSW,9.2,-,N/A,,Mostly Cloudy,210,2013-04-07 16:53:00
9:53 AM,21.0,9.0,60,29.63,10.0,SSW,8.1,-,N/A,,Mostly Cloudy,210,2013-04-07 17:53:00
10:53 AM,21.9,8.1,55,29.64,10.0,SSW,6.9,-,N/A,,Mostly Cloudy,200,2013-04-07 18:53:00
11:53 AM,23.0,6.1,48,29.66,10.0,SSW,11.5,23.0,N/A,,Mostly Cloudy,210,2013-04-07 19:53:00
12:53 PM,24.1,6.1,46,29.67,10.0,SSW,8.1,18.4,N/A,,Mostly Cloudy,210,2013-04-07 20:53:00
1:53 PM,23.0,10.0,58,29.69,10.0,WNW,8.1,-,N/A,,Mostly Cloudy,290,2013-04-07 21:53:00
2:53 PM,24.1,12.0,60,29.72,10.0,WNW,6.9,-,N/A,,Mostly Cloudy,290,2013-04-07 22:53:00
3:53 PM,25.0,5.0,43,29.74,10.0,SW,12.7,18.4,N/A,,Mostly Cloudy,230,2013-04-07 23:53:00
4:53 PM,24.1,10.0,55,29.76,10.0,WNW,9.2,-,N/A,,Scattered Clouds,290,2013-04-08 00:53:00
5:53 PM,24.1,10.0,55,29.76,10.0,West,5.8,-,N/A,,Scattered Clouds,280,2013-04-08 01:53:00
6:53 PM,23.0,8.1,53,29.76,10.0,WNW,6.9,-,N/A,,Scattered Clouds,290,2013-04-08 02:53:00
7:53 PM,23.0,8.1,53,29.76,10.0,NNW,4.6,-,N/A,,Scattered Clouds,340,2013-04-08 03:53:00
8:53 PM,21.0,7.0,55,29.77,10.0,North,4.6,-,N/A,,Scattered Clouds,350,2013-04-08 04:53:00
9:53 PM,19.9,6.1,55,29.78,10.0,NNE,4.6,-,N/A,,Mostly Cloudy,20,2013-04-08 05:53:00
10:53 PM,21.9,12.0,66,29.78,10.0,NE,3.5,-,N/A,,Mostly Cloudy,50,2013-04-08 06:53:00
11:53 PM,21.0,10.0,63,29.78,10.0,NNW,10.4,16.1,N/A,,Overcast,340,2013-04-08 07:53:00